[[{"header":{"parameterUnit":"m.s-1","parameterCategory":1,"la1":30.2992,"la2":30.254,"lo1":-89.0895,"lo2":-89.0443,"dy":0.0025,"dx":0.0025,"nx":19,"ny":19,"refTime":"2026-05-08T03:00:00:Z","depth":0,"parameterNumber":2,"parameterNumberName":"U-component_of_WINDS"},"data":[0,0,0,-5.7938,-5.7942,-5.8125,-5.8125,-5.8369,-5.8371,0,0,0,0,0,0,0,0,0,0,0,-5.7893,-5.7895,-5.7938,-5.7943,-5.8125,-5.8125,-5.8368,-5.8371,0,0,0,0,0,0,0,0,0,0,0,-5.7892,-5.7894,-5.7897,-5.7944,-5.8125,-5.8125,-5.8368,-5.8226,0,0,0,0,0,0,0,0,0,0,-5.8047,-5.8014,-5.7894,-5.7897,-5.7945,-5.8124,-5.8125,-5.8219,-5.8235,-5.8291,0,-5.8346,0,-5.8363,-5.8388,-5.8389,0,0,0,-5.7935,-5.8001,-5.8043,-5.7897,-5.7946,-5.8124,-5.8041,-5.8228,-5.8246,-5.8313,-5.8349,-5.8358,-5.8367,-5.839,-5.8391,-5.8747,-5.8749,0,0,-5.7925,-5.7929,-5.803,-5.8055,-5.803,-5.8035,-5.8046,-5.8238,-5.8278,-5.835,-5.8364,-5.8371,-5.8392,-5.8393,-5.8745,-5.8747,0,0,0,-5.7901,-5.7923,-5.796,-5.8045,-5.8077,-5.804,-5.8053,-5.8269,-5.8281,-5.8366,-5.8374,-5.8393,-5.8396,-5.8743,-5.8746,-5.8846,0,0,0,-5.7895,-5.7909,-5.7956,-5.796,-5.8074,-5.8176,-5.808,-5.8268,-5.8289,-5.8373,-5.8393,-5.8399,-5.8741,-5.8744,-5.8839,-5.8891,0,0,0,-5.7878,-5.7906,-5.7936,-5.7959,-5.8038,-5.8173,-5.8196,-5.8272,-5.8295,-5.8389,-5.8399,-5.8739,-5.8744,-5.8832,-5.888,-5.8983,0,0,0,-5.786,-5.8022,-5.7938,-5.8123,-5.8037,-5.8236,-5.8194,-5.8342,-5.8436,-5.8394,-5.8741,-5.8746,-5.883,-5.8873,-5.8976,-5.9066,-5.9106,0,0,-5.8067,-5.8047,-5.8156,-5.8086,-5.8301,-5.8208,-5.8437,-5.8518,-5.8524,-5.8672,-5.868,-5.8841,-5.8879,-5.8981,-5.9337,-5.9369,0,0,0,-5.8223,-5.83,-5.8357,-5.8447,-5.8516,-5.8577,-5.8624,-5.8655,-5.8781,-5.8601,-5.8909,-5.8931,-5.8991,-5.9034,-5.9061,-5.911,-5.8767,-5.8767,-5.8766,-5.8515,-5.8516,-5.8695,-5.8718,-5.8807,-5.8856,-5.8926,-5.8975,-5.8948,-5.9022,-5.9063,-5.9279,-5.933,-5.935,-5.9401,-5.9116,-5.9116,-5.9117,-5.9117,-5.8814,-5.8921,-5.8887,-5.9046,-5.9046,-5.918,-5.9234,-5.9211,-5.9333,-5.9247,-5.93,-5.92,-5.9384,-5.9429,-5.9125,-5.9123,-5.9122,-5.9122,-5.9121,-5.9,-5.9052,-5.909,-5.9222,-5.9324,-5.9343,-5.9463,-5.946,-5.9456,-5.9509,-5.955,-5.9549,-5.9542,-5.9531,-5.9532,-5.9532,-5.9533,-5.9533,-5.9534,-5.9176,-5.9216,-5.9318,-5.9408,-5.9466,-5.9543,-5.9597,-5.9653,-5.9714,-5.9701,-5.9702,-5.9665,-5.9405,-5.9336,-5.9545,-5.9543,-5.9542,-5.9541,-5.954,-5.9467,-5.9402,-5.956,-5.9619,-5.9724,-5.9825,-5.9822,-5.9938,-5.9985,-6.0044,-5.9999,-5.981,-5.9788,-5.9766,-5.9709,-6.0002,-6.0002,-6.0002,-6.0002,-5.9619,-5.9611,-5.9772,-5.9867,-5.9959,-5.9974,-6.015,-6.0195,-6.023,-6.0259,-6.0218,-6.0144,-6.0123,-6.0113,-6.0084,-6.003,-6.0398,-6.0399,-6.0399,-5.9796,-5.9797,-5.9947,-5.9985,-6.0068,-6.0138,-6.0304,-6.0412,-6.0439,-6.0415,-6.028,-6.0263,-6.0144,-6.0106,-6.007,-6.0026,-5.9927,0,0]},{"header":{"parameterUnit":"m.s-1","parameterCategory":1,"la1":30.2992,"la2":30.254,"lo1":-89.0895,"lo2":-89.0443,"dy":0.0025,"dx":0.0025,"nx":19,"ny":19,"refTime":"2026-05-08T03:00:00:Z","depth":0,"parameterNumber":3,"parameterNumberName":"V-component_of_WINDS"},"data":[0,0,0,3.4256,3.4259,3.441,3.441,3.4589,3.459,0,0,0,0,0,0,0,0,0,0,0,3.4207,3.4208,3.4256,3.426,3.441,3.441,3.4588,3.459,0,0,0,0,0,0,0,0,0,0,0,3.4207,3.4208,3.4209,3.426,3.4409,3.441,3.4588,3.4479,0,0,0,0,0,0,0,0,0,0,3.4335,3.4286,3.4208,3.4209,3.4261,3.4409,3.441,3.4473,3.4485,3.4516,0,3.4546,0,3.4571,3.4602,3.4602,0,0,0,3.4261,3.4276,3.4321,3.421,3.4262,3.4409,3.4342,3.448,3.4494,3.4532,3.4548,3.4555,3.4574,3.4603,3.4604,3.4785,3.4785,0,0,3.4253,3.423,3.4312,3.433,3.431,3.4338,3.4347,3.4489,3.4503,3.4549,3.456,3.4577,3.4604,3.4605,3.4784,3.4785,0,0,0,3.4228,3.4224,3.4267,3.4322,3.4351,3.4342,3.4353,3.4497,3.4513,3.4562,3.4579,3.4605,3.4607,3.4783,3.4784,3.4801,0,0,0,3.4223,3.421,3.4263,3.425,3.4348,3.4426,3.4358,3.4503,3.452,3.4578,3.4605,3.4609,3.4783,3.4784,3.4799,3.481,0,0,0,3.4199,3.4207,3.4228,3.4249,3.4313,3.4425,3.4449,3.4507,3.453,3.4602,3.4609,3.4782,3.4784,3.4797,3.4807,3.4852,0,0,0,3.4164,3.4237,3.4228,3.4316,3.4312,3.4436,3.4448,3.454,3.4604,3.4606,3.4783,3.4784,3.4796,3.4806,3.485,3.4884,3.4897,0,0,3.4243,3.4245,3.4299,3.4295,3.4416,3.4414,3.4536,3.4613,3.4639,3.4734,3.4738,3.4799,3.4807,3.4852,3.4981,3.4991,0,0,0,3.4316,3.4354,3.4391,3.4454,3.4519,3.4574,3.4637,3.4666,3.4749,3.4685,3.4829,3.4834,3.4861,3.4878,3.4887,3.4911,3.4792,3.4792,3.4792,3.439,3.4424,3.4515,3.4568,3.4628,3.4695,3.4746,3.4796,3.4808,3.4842,3.4869,3.4944,3.4964,3.497,3.4995,3.4892,3.4892,3.4892,3.4892,3.4507,3.4565,3.4587,3.4683,3.4717,3.4796,3.4863,3.487,3.4947,3.4925,3.495,3.4922,3.4981,3.5004,3.4894,3.4893,3.4893,3.4893,3.4893,3.4557,3.4591,3.463,3.4727,3.4796,3.4846,3.4921,3.4949,3.4975,3.5,3.5032,3.5032,3.5033,3.5014,3.5015,3.5015,3.5015,3.5015,3.5015,3.4593,3.4637,3.4699,3.4778,3.4823,3.4886,3.4956,3.5,3.5055,3.5069,3.507,3.5078,3.4982,3.4956,3.5019,3.5019,3.5018,3.5018,3.5018,3.4694,3.4678,3.4773,3.4819,3.4915,3.4983,3.502,3.5108,3.5148,3.5184,3.5189,3.5115,3.5117,3.511,3.5089,3.5183,3.5183,3.5183,3.5183,3.4735,3.4742,3.4848,3.492,3.4994,3.5039,3.5143,3.5199,3.5253,3.528,3.5271,3.5246,3.5238,3.5245,3.5236,3.5216,3.534,3.5341,3.5341,3.4799,3.4815,3.49,3.4958,3.5036,3.5102,3.5201,3.528,3.5337,3.5348,3.5301,3.5294,3.5254,3.524,3.5245,3.5229,3.5194,0,0]}]]